DW3383 Weather Reports


time (UTC)temp
F
wind
direction
speed
knots
gust
knots
rain 1hr
in
rain 24hr
in
rain mn
in
humidity
%
barometer
mb
20260904100804 34 275 2.6 4.3 0.00 0.00 0.00 98 1021.2
20260904100305 34 251 2.6 5.2 0.00 0.00 0.00 98 1021.3
20260904090805 35 282 1.7 4.3 0.00 0.00 0.00 97 1021.4
20260904090304 36 269 3.5 5.2 0.00 0.00 0.00 97 1021.3
20260904080805 36 281 4.3 4.3 0.00 0.00 0.00 96 1021.0
20260904070811 38 278 2.6 2.6 0.00 0.00 0.00 94 1021.0
20260904070305 38 280 2.6 4.3 0.00 0.00 0.00 94 1021.1
20260904060805 41 275 2.6 4.3 0.00 0.00 0.00 90 1021.0
20260904060305 41 274 4.3 6.1 0.00 0.00 0.00 90 1021.0
20260904050805 43 279 5.2 6.1 0.00 0.00 0.00 87 1021.0
20260904040804 50 25 1.7 2.6 0.00 0.00 0.00 73 1020.6
20260904040305 50 24 2.6 5.2 0.00 0.00 0.00 70 1020.6
20260904030804 55 159 0.0 0.9 0.00 0.00 0.00 55 1020.0
20260904020804 58 88 0.0 0.0 0.00 0.00 0.00 44 1019.9
20260904020304 59 88 0.0 2.6 0.00 0.00 0.00 43 1019.8
20260904010804 62 54 0.9 2.6 0.00 0.00 0.00 40 1020.1
20260903230804 56 312 0.0 0.9 0.00 0.00 0.00 51 1020.7
20260903230304 55 338 0.9 2.6 0.00 0.00 0.00 53 1020.7
20260903220805 53 151 0.0 1.7 0.00 0.00 0.00 57 1021.1
20260903220305 53 191 0.9 4.3 0.00 0.00 0.00 54 1021.2
20260903210804 52 277 1.7 2.6 0.00 0.00 0.00 61 1021.3
20260903200804 50 288 2.6 5.2 0.00 0.00 0.00 65 1021.7
20260903200304 50 262 2.6 7.8 0.00 0.00 0.00 66 1021.8
20260903190804 48 283 5.2 6.1 0.00 0.00 0.00 71 1021.8
20260903180804 45 263 1.7 2.6 0.00 0.00 0.00 78 1022.0
20260903180304 45 264 1.7 6.1 0.00 0.00 0.00 79 1022.1
20260903170804 41 275 4.3 6.1 0.00 0.00 0.00 87 1021.7
20260903170304 41 272 4.3 7.0 0.00 0.00 0.00 88 1021.7
20260903160804 38 281 2.6 4.3 0.00 0.00 0.00 95 1021.5
20260903160304 38 274 1.7 5.2 0.00 0.00 0.00 96 1021.5
20260903150804 36 283 3.5 4.3 0.00 0.00 0.00 99 1021.0
20260903150304 36 279 2.6 5.2 0.00 0.00 0.00 99 1021.0
20260903140804 37 274 2.6 2.6 0.00 0.00 0.00 98 1020.4
20260903140305 37 283 2.6 5.2 0.00 0.00 0.00 98 1020.4
20260903130804 39 278 2.6 2.6 0.00 0.00 0.00 98 1019.7
20260903130304 39 276 2.6 6.1 0.00 0.00 0.00 98 1019.6
20260903120305 42 226 1.7 7.0 0.00 0.00 0.00 96 1019.1
20260903110805 43 258 1.7 5.2 0.00 0.00 0.00 97 1018.6
20260903110306 43 207 1.7 6.1 0.00 0.00 0.00 96 1018.5